Location: Lane
(33.5226°N, 79.8788°W)
Time: 07:53:35
(UTC+00:00)

Tiros 1 despin weight - Pass Details

Date: 05 October 2022
Orbit: 590 x 637 km, 48.2° (Epoch: 28 November)

Event Time Altitude Azimuth Distance (km) Brightness Sun altitude
Rises 20:29:14 0° 257° (WSW) 2,822 ? 28.8°
Reaches altitude 10° 20:31:42 10° 267° (W) 1,928 ? 28.4°
Maximum altitude 20:35:40 32° 331° (NNW) 1,042 ? 27.6°
Drops below altitude 10° 20:39:43 10° 36° (NE) 1,959 ? 26.9°
Sets 20:42:14 0° 46° (NE) 2,875 ? 26.4°
